Miscellaneous Local Product
Issued by NWS Hastings, NE

Home | Current Version | Previous Version | Graphics & Text | Print | Product List | Glossary On
Versions: 1 2 3 4 5 6 7 8 9 10 11 12 13 14 15 16 17 18 19 20 21 22 23 24 25 26 27 28 29 30 31 32 33 34 35 36 37 38 39 40 41 42 43 44 45 46 47 48 49 50
137
AXUS43 KGID 180602
MISGRI

GID CWA HOURLY WEATHER ROUNDUP
NATIONAL WEATHER SERVICE HASTINGS NE
1200 AM CST MON DEC 18 2017

NOTE: "FAIR" INDICATES FEW OR NO CLOUDS BELOW 12,000 FEET WITH NO
SIGNIFICANT WEATHER AND/OR OBSTRUCTIONS TO VISIBILITY.

...SOUTH CENTRAL NEBRASKA...

CITY           SKY/WX    TMP DP  RH WIND       PRES   REMARKS
GRAND ISLAND   CLEAR     27  25  92 SW7       29.98F WCI  19
KEARNEY        CLEAR     29  26  89 SW9       29.98F WCI  20
HASTINGS       CLEAR     25  22  88 W8        29.99F WCI  16
ORD            CLEAR     27  25  92 S3        29.93F
YORK           CLOUDY    23  23 100 SW6       29.98F WCI  16
AURORA         CLEAR     23  22  95 W5        29.98S WCI  17
LEXINGTON      CLEAR     29  25  88 SW7       29.97S WCI  21
HOLDREGE       CLOUDY    28  27  96 SW6       29.98F WCI  21
HEBRON         CLOUDY    27  25  91 CALM      30.00F

...NEBRASKA PANHANDLE...

CITY           SKY/WX    TMP DP  RH WIND       PRES   REMARKS
CHADRON        CLOUDY    23  16  74 SW6       29.92F WCI  16
ALLIANCE       CLOUDY    16  12  84 SW12      29.93R WCI   3
SCOTTSBLUFF    CLOUDY    22  12  65 N8        29.95R WCI  12
SIDNEY         CLOUDY    21  18  88 NW12      29.95R WCI   9

...WESTERN AND NORTH CENTRAL NEBRASKA...

CITY           SKY/WX    TMP DP  RH WIND       PRES   REMARKS
VALENTINE      CLEAR     31  26  82 W12       29.86R WCI  22
AINSWORTH      CLEAR     31  29  93 SW13      29.86F WCI  21
ONEILL         CLOUDY    30  29  96 S7        29.90F WCI  23
BROKEN BOW     CLEAR     33  28  81 SW10      29.92F WCI  25
IMPERIAL       CLEAR     25  22  88 W9        29.97S WCI  15
NORTH PLATTE   CLOUDY    27  24  89 W6        29.95S WCI  20
MCCOOK         CLEAR     27  24  89 W12       29.98F WCI  17

...EASTERN NEBRASKA...

CITY           SKY/WX    TMP DP  RH WIND       PRES   REMARKS
NORFOLK        CLEAR     20  18  92 CALM      29.95S
SO SIOUX CITY  CLEAR     21  20  96 E3        29.96F
TEKAMAH        CLEAR     23  19  85 S6        29.98F FOG     WCI  16
COLUMBUS       CLEAR     21  18  88 CALM      29.98F
ALBION         CLEAR     29  25  86 CALM      29.96S
OMAHA EPPLEY   PTCLDY    28  22  78 CALM      30.00F
OFFUTT AFB     MOCLDY    26  24  92 CALM      29.99F
MILLARD        CLOUDY    29  27  92 CALM      29.99F FOG
LINCOLN        CLEAR     26  23  88 CALM      30.00F FOG
NEBRASKA CITY  CLEAR     30  30 100 SW3       29.99F FOG
BEATRICE       FOG       26  26  98 S3        30.00F VSB 1/2
FALLS CITY     CLOUDY    37  35  92 W3        30.01S FOG

...NORTHERN KANSAS...

CITY           SKY/WX    TMP DP  RH WIND       PRES   REMARKS
GOODLAND       CLOUDY    28  23  81 SW12      29.98F WCI  18
HILL CITY      CLEAR     21  20  96 SW5       30.02F WCI  15
NORTON         CLEAR     21  18  86 SW7       29.99S WCI  13
PHILLIPSBURG   CLEAR     25  25 100 W7        30.01F WCI  17
SMITH CENTER   MOCLDY    25  25 100 W3        30.01F
HAYS           CLOUDY    20  17  88 SW3       30.04S
RUSSELL        CLOUDY    22  21  96 S7        30.02S WCI  13
CONCORDIA      CLOUDY    30  27  88 W5        30.02S WCI  25
SALINA         CLEAR     33  28  81 W3        30.04S
TOPEKA         CLOUDY    46  41  82 SW8       30.03S



USA.gov is the U.S. government's official web portal to all federal, state and local government web resources and services.